User: anonymous   Login
Location: Saint Peter Port
(49.4500°N, 2.5330°W)
Time: 09:37:42
(UTC+01:00)
Language:

Cosmos 2242 Rocket - Orbit

View from above orbital plane
View from above orbital plane
View from above satellite
View from above satellite

Ground track
Ground track

The orbit data is extracted from the following two-line orbital elements,

1 22627U 93024B   14295.54433799  .00000676  00000-0  90962-4 0  4682
2 22627 082.5209 279.4442 0022259 255.3370 242.6021 14.77691646159074
Epoch (UTC): 22 October 2014 13:03:50
Eccentricity: 0.0022259
inclination: 82.5209°
perigee height: 621 km
apogee height: 652 km
right ascension of ascending node: 279.4442°
argument of perigee: 255.3370°
revolutions per day: 14.77691646
mean anomaly at epoch: 242.6021°
orbit number at epoch: 15907

The dashed part of the orbit path shows where the satellite is in the earth's shadow,  

DLR